Back to catalog

DELTA 1 DEB

AliveLEO
NORAD 10760·DEBRIS·🇺🇸 United States

Launched Jul 29, 1976 from Vandenberg Space Force Base

Loading…

Next Passes (next 24 hours)

TLE

FreshSource: Space-Track

Epoch: Sep 13, 2026, 07:17 UTC

1 10760U 76077BH  26256.30381049  .00002293  00000-0  11349-1 0  9995
2 10760 101.4923  28.8021 0543538 306.8023  75.2796 12.34708977643273

Track DELTA 1 DEB in real time with AllMySat

Download on the App Store